sat.trackr.live / text

‹ back to catalog

STARLINK-36868

NORAD 68120 · 2026-044V

PAYLOAD ACTIVE UNKNOWN

§ Identity

Operator
Country
US
Launch date
2026-03-08
Launch site
AFWTR
Launch vehicle
Mass (kg)
RCS (m²)

Purposes: comms

External: N2YO · Heavens-Above · Gunter

§ Orbital elements

Epoch: 2026-09-20T04:40:08.116032Z

Period
93.91 min
Inclination
97.2848°
Eccentricity
0.0002021
Mean motion
15.33440284 rev/d
Perigee alt
464.2 km
Apogee alt
466.9 km
Semi-major
6,843.7 km
B*
3.9895e-4
RAAN
222.1919°
Arg perigee
90.3208°
Mean anomaly
269.8266°
Rev number
3,139

§ Raw data

STARLINK-368681 68120U 26044V   26263.19453838  .00012825  00000+0  39895-3 0  99972 68120  97.2848 222.1919 0002021  90.3208 269.8266 15.33440284 31399

JSON: /api/v1/satellites/68120 · /tle

For live sub-satellite position, see the globe view (requires WebGL).

§ Visibility from observer

Set your observer location to see the next 7 days of passes ≥ 10°. The values pass through the URL so the page stays shareable.

No JS? Fill the form by hand. The geolocation button needs JavaScript.